Weather in Stantsiya Luostari

Russia / Murmansk Oblast     69°24′02″N   31°06′34″E
temp.,
°C
wind,
m/s
gust,
m/s
humid.,
%
clouds,
%
prec.,
mm/h
press.,
hPa
HPBL,
m
31 july, sat
sat3100:00+7ene2290100 0.9 100070
03:00+7ne2295100 2.4 99971
06:00+7e2595100 2.7 998308
09:00+8e2586100 2.9 997280
12:00+9ese3683100 0.2 997408
15:00+9e1383100 0.3 997285
18:00+10e3484100 0.0 997393
21:00+9e1189100 0.0 99824
1 august, sun
sun100:00+8e119297 0.0 99710
03:00+9se1190100 0.0 99811
06:00+10sse1283100 0.0 99784
09:00+11sse2385100 0.4 998224
12:00+11ese2592100 1.1 998275
15:00+11e1289100 1.4 998164
18:00+12e1192100 1.4 997102
21:00+11ne2299100 10.4 99640
2 august, mon
mon200:00+11ene1199100 9.4 99617
03:00+10nnw2299100 9.6 99678
06:00+7n5698100 0.3 997309
09:00+7n3496100 0.4 998325
12:00+8wnw1391100 0.1 1000587
15:00+9wnw3480100 0.1 1001713
18:00+12nw23595 0.0 10021139
21:00+10ese2271100 0.0 100313
3 august, tue
tue300:00+6ese118564 0.0 100410
03:00+6ne338589 0.0 100615
06:00+7nne698781 0.0 1007400
09:00+10ne677568 0.0 1007566
12:00+10ne7870100 0.0 1007773
15:00+10nne8967100 0.0 1008717
18:00+9nne81071100 0.0 1008642
21:00+7n71184100 0.0 1008531
4 august, wed
wed400:00+6n61287100 0.0 1008449
03:00+6n61386100 0.0 1008536
06:00+7n71479100 0.0 1009846
09:00+9nnw91369100 0.0 10091083
12:00+11nnw101362100 0.0 10091408
15:00+11nnw101258100 0.1 10101483
18:00+11nnw71169100 0.1 10101262
21:00+9nw61077100 0.2 1011361